x

9410840 - Santa Monica Pier (icac1) Weather Station

9:54 - Sun 28th May 2017 All times are PDT. -7 hours from GMT.

  • Wind
    7mph, 9mph gusts
  • Sea Temp 64°f
  • Air Temp 60°f
  • Sea Pressure 1015.4mb
  • 9410840 - Santa Monica Pier
  • 9410840 - Santa Monica Pier

More Historic Weather Station data

Upgrade to MSW Pro to gain access to the past 30 days of data for over 8000 Wavebouys and Weather Stations around the globe.

Join Pro

Comparision Forecast

View Surf forecast
   
dim. 05/28 9:54 7 9 mph 1015.4mb 64f 60f
9:48 8 9 mph 1015.4mb 64f 60f
9:42 8 10 mph 1015.4mb 64f 60f
9:36 9 10 mph 1015.3mb 64f 60f
9:30 8 9 mph 1015.2mb 64f 60f
9:24 8 9 mph 1015.1mb 64f 60f
9:18 7 8 mph 1015mb 64f 60f
9:12 6 6 mph 1015mb 64f 60f
9:06 5 6 mph 1015mb 64f 60f
9:00 3 5 mph 1014.9mb 64f 60f
8:54 3 6 mph 1014.9mb 64f 60f
8:48 6 7 mph 1014.8mb 64f 60f
8:42 6 7 mph 1014.8mb 64f 60f
8:36 7 8 mph 1014.8mb 65f 60f
8:30 7 9 mph 1014.7mb 65f 60f
8:24 8 9 mph 1014.8mb 65f 60f
8:18 8 9 mph 1014.8mb 65f 60f
8:12 8 9 mph 1014.7mb 65f 60f
8:06 8 9 mph 1014.7mb 65f 60f
8:00 8 9 mph 1014.7mb 65f 60f
7:54 9 10 mph 1014.7mb 65f 60f
7:48 10 11 mph 1014.8mb 65f 60f
7:42 10 10 mph 1014.7mb 65f 61f
7:36 10 11 mph 1014.8mb 65f 61f
7:30 10 13 mph 1014.8mb 65f 61f
7:24 9 10 mph 1014.8mb 65f 61f
7:18 9 9 mph - - -
7:12 8 10 mph 1014.8mb 66f 61f
7:06 8 10 mph 1014.7mb 66f 61f
7:00 9 11 mph 1014.8mb 66f 61f
6:54 9 11 mph 1014.7mb 66f 61f
6:48 10 11 mph - - -
6:42 10 11 mph 1014.7mb 66f 61f
6:36 10 13 mph 1014.6mb 66f 61f
6:30 10 11 mph 1014.6mb 66f -
6:24 10 11 mph 1014.6mb 66f 61f
6:18 10 13 mph - - -
6:12 11 13 mph 1014.6mb 66f 61f
6:06 11 13 mph 1014.5mb 66f 60f
6:00 11 13 mph - - -
5:48 13 14 mph - - -
5:42 11 15 mph 1014.7mb 66f 61f
5:36 13 14 mph 1014.7mb 66f 60f
5:30 11 13 mph 1014.7mb - -
5:24 11 14 mph 1014.7mb 66f 61f
5:18 11 14 mph - - -
5:12 13 14 mph 1014.7mb 66f 60f
5:06 13 14 mph 1014.7mb 66f 60f
5:00 13 14 mph 1014.6mb - -
4:54 11 14 mph 1014.7mb 66f 60f
4:48 11 14 mph 1014.6mb 66f 60f
4:42 13 14 mph 1014.7mb 66f 60f
4:36 13 16 mph 1014.8mb 66f 60f
4:30 14 17 mph 1014.9mb 66f -
4:24 15 18 mph 1015mb 65f 60f
4:18 17 18 mph - - -
4:12 15 16 mph 1015.2mb 65f 60f
4:00 15 16 mph 1015.4mb - -
3:48 15 16 mph - - -
3:42 14 16 mph 1015.6mb 65f 60f
3:36 13 15 mph 1015.7mb 65f 61f
3:30 13 14 mph 1015.8mb 65f 61f
3:24 13 14 mph 1015.8mb 65f 61f
3:18 14 15 mph - - -
3:12 15 16 mph 1016mb 65f 60f
3:06 15 16 mph 1015.9mb 65f 60f
3:00 14 15 mph 1016mb - -
2:54 14 15 mph 1016.2mb 65f 61f
2:48 13 14 mph - - -
2:42 11 14 mph 1016.2mb 65f 61f
2:36 11 13 mph 1016.3mb 65f 61f
2:30 11 14 mph 1016.3mb 65f 61f
2:24 11 14 mph 1016.3mb 65f 61f
2:18 11 13 mph 1016.3mb 65f 60f
2:12 11 13 mph 1016.4mb 65f 60f
2:06 10 11 mph 1016.5mb 65f 60f
2:00 10 11 mph 1016.5mb 65f 60f
1:54 10 11 mph 1016.6mb 65f 60f
1:48 9 10 mph 1016.5mb 64f 60f
1:42 9 10 mph 1016.5mb 63f 60f
1:36 9 10 mph 1016.5mb 64f 60f
1:30 8 10 mph 1016.5mb 63f 60f
1:24 8 9 mph 1016.5mb 64f 60f
1:18 8 10 mph - - -
1:12 8 11 mph 1016.6mb 65f 61f
1:06 10 13 mph 1016.8mb 65f 60f
1:00 10 13 mph 1016.9mb 65f 60f
12:54 10 13 mph 1016.9mb 65f 60f
12:48 10 13 mph 1017mb 65f 61f
12:42 13 14 mph 1017.1mb 65f 60f
12:36 11 13 mph 1017mb 65f 61f
12:30 11 13 mph 1017.1mb 65f 61f
12:24 10 13 mph 1017.1mb 65f 61f
12:18 10 10 mph 1017.1mb 65f 61f
12:12 9 10 mph 1017.1mb 65f 61f
12:06 8 9 mph 1017mb 65f 61f
12:00 7 9 mph 1017mb 65f 61f
11:54 8 9 mph 1017mb 65f 61f
11:48 8 9 mph 1017mb 65f 60f
11:42 8 9 mph 1017.1mb 65f 60f
11:36 8 9 mph 1017.1mb 65f 60f
11:30 7 9 mph 1017.1mb 65f 60f
11:24 8 9 mph 1017.1mb 65f 60f
11:18 8 9 mph 1017.1mb 64f 60f
11:12 8 9 mph 1017.1mb 64f 60f
11:06 8 9 mph 1017.1mb 64f 60f
11:00 7 9 mph 1017.1mb 64f 60f
10:54 7 8 mph 1017mb 64f 60f
10:48 8 8 mph 1017mb 64f 60f
10:42 7 8 mph 1017mb 64f 60f
10:36 6 9 mph 1017mb 64f 60f
10:30 7 8 mph 1017.1mb 64f 60f
10:24 8 9 mph 1017.1mb 64f 60f
10:18 8 9 mph 1017.1mb 63f 60f
10:12 8 8 mph 1017.1mb 63f 60f
10:06 8 9 mph 1017.1mb 63f 60f
10:00 8 9 mph 1017.2mb 63f 60f
9:54 9 10 mph 1017.2mb 63f 60f
9:48 9 10 mph 1017.2mb 63f 60f
9:42 9 11 mph 1017.2mb 63f 60f
9:36 9 10 mph 1017.2mb 63f 60f
9:30 9 10 mph 1017.2mb 63f 60f
9:24 9 10 mph 1017.3mb 63f 60f
9:18 8 9 mph - - -
9:12 8 9 mph 1017.3mb 63f 60f
9:06 8 9 mph 1017.2mb 63f 60f
9:00 8 9 mph 1017.2mb 63f 60f
8:54 7 9 mph 1017.1mb 62f 60f
8:48 7 8 mph 1017.1mb 62f 60f
8:42 8 10 mph 1017.1mb 62f 61f
8:36 7 8 mph 1017.1mb 62f 61f
8:30 5 7 mph 1017.1mb 61f 62f
8:24 6 8 mph 1017.1mb 61f 62f
8:18 6 8 mph 1017.1mb 61f 61f
8:12 8 9 mph 1017.1mb 60f 61f
8:06 6 8 mph 1017mb 60f 61f
8:00 6 8 mph 1017mb 60f 60f
7:54 6 8 mph 1017mb 60f 60f
7:48 5 8 mph 1017.1mb 60f 60f
7:42 6 9 mph 1017.1mb 60f 60f
7:36 6 8 mph 1017.1mb 60f 60f
7:30 7 8 mph 1017.1mb 60f 60f
7:24 6 7 mph 1017.1mb 60f 60f
7:18 6 8 mph 1017mb 60f 60f
7:12 5 7 mph 1017mb 60f 60f
7:06 5 6 mph 1016.9mb 60f 60f
7:00 3 5 mph 1016.9mb 60f 60f
6:54 2 5 mph 1016.8mb 60f 60f
6:48 3 6 mph - - -
6:42 3 6 mph 1016.7mb 60f 59f
6:36 3 6 mph 1016.6mb 60f 59f
6:30 3 6 mph 1016.5mb 60f 59f
6:24 3 6 mph 1016.5mb 60f 59f
6:18 3 6 mph 1016.4mb 60f 58f
6:12 5 6 mph 1016.3mb 60f 58f
6:06 3 5 mph 1016.3mb 60f 58f
6:00 3 5 mph 1016.4mb 61f 58f
5:54 3 5 mph 1016.3mb 61f 58f
5:48 5 5 mph 1016.1mb 61f 58f
5:42 5 6 mph 1016.1mb 62f 58f
5:36 3 5 mph 1016.1mb 62f 58f
5:30 3 5 mph 1016.1mb 62f 58f
5:24 3 5 mph 1016.1mb 62f 58f
5:18 3 5 mph 1016mb 62f 59f
5:12 3 6 mph 1016mb 62f 59f
5:06 3 6 mph 1015.9mb 62f 59f
5:00 6 6 mph 1016mb 62f 59f
4:54 5 6 mph 1016mb 62f 59f
4:48 5 6 mph 1015.9mb 62f 59f
4:42 5 6 mph 1015.9mb 62f 59f
4:36 5 6 mph 1015.9mb 62f 59f
4:30 3 5 mph 1015.9mb 62f 59f
4:24 3 6 mph 1015.9mb 62f 59f
4:18 5 6 mph 1015.8mb 62f 59f
4:12 3 6 mph 1015.8mb 62f 59f
4:06 5 6 mph 1015.8mb 62f 59f
4:00 5 7 mph 1015.8mb 62f 59f
3:54 6 7 mph 1015.8mb 62f 59f
3:48 5 7 mph 1015.8mb 62f 60f
3:42 5 6 mph 1015.9mb 62f 60f
3:36 3 5 mph 1015.9mb 62f 60f
3:30 3 6 mph 1015.9mb 61f 60f
3:24 2 3 mph 1015.9mb 61f 60f
3:18 3 5 mph 1016mb 61f 60f
3:12 5 6 mph 1016mb 61f 60f
3:06 5 6 mph 1016mb 61f 60f
3:00 5 5 mph 1016mb 61f 60f
2:54 5 6 mph 1016.1mb 61f 60f
2:48 5 6 mph 1016.1mb 61f 60f
2:42 5 5 mph 1016.2mb 61f 60f
2:36 5 6 mph 1016.2mb 60f 60f
2:30 5 6 mph 1016.2mb 60f 60f
2:24 3 6 mph 1016.3mb 60f 60f
2:18 5 5 mph - - -
2:12 3 6 mph 1016.4mb 60f 60f
2:06 3 6 mph 1016.4mb 60f 60f
2:00 5 6 mph 1016.4mb 60f 60f
1:54 3 6 mph 1016.4mb 60f 60f
1:48 5 6 mph - - -
1:42 5 6 mph 1016.6mb 60f 61f
1:36 5 6 mph 1016.6mb 60f 60f
1:30 5 6 mph 1016.6mb 60f 60f
1:24 3 5 mph 1016.6mb 60f 61f
1:18 2 3 mph 1016.7mb 60f 61f
1:12 2 3 mph 1016.7mb 60f 61f
1:06 2 2 mph 1016.8mb 60f 61f
1:00 2 3 mph 1016.9mb 60f 61f
12:54 2 3 mph 1016.8mb 60f 61f
12:48 2 3 mph 1016.8mb 60f 61f
12:42 2 3 mph 1016.8mb 60f 61f
12:36 2 3 mph 1016.9mb 60f 61f
12:30 2 3 mph 1016.9mb 60f 61f
12:24 3 3 mph 1016.8mb 60f 62f
12:18 2 3 mph 1016.8mb 60f 61f
12:12 3 3 mph 1016.9mb 60f 62f
12:06 3 3 mph 1016.9mb 60f 62f
12:00 3 3 mph 1016.9mb 60f 62f
sam. 05/27 11:54 3 3 mph 1016.9mb 60f 62f
11:48 2 3 mph 1017mb 60f 62f
11:42 3 5 mph 1017mb 60f 62f
11:36 3 3 mph 1017mb 61f 62f
11:30 3 5 mph 1017mb 61f 62f
11:24 3 5 mph 1017mb 61f 62f
11:18 3 5 mph 1017mb 61f 62f
11:12 3 5 mph 1017mb 61f 63f
11:06 2 3 mph 1017mb 62f 63f
11:00 2 2 mph 1017mb 62f 62f
10:54 2 3 mph 1017mb 62f 62f
10:48 2 2 mph - - -
10:42 2 3 mph 1017.1mb 62f 62f
10:36 2 3 mph 1017.1mb 62f 62f
10:30 1 2 mph 1017.1mb 62f 63f
10:24 2 2 mph 1017.1mb 62f 62f
10:18  -  2 mph 1017mb 62f 62f
10:12  -  1 mph 1017mb 62f 62f
10:06  -  1 mph 1017mb 62f 62f
10:00 1 1 mph 1016.9mb 62f 63f
9:54 1 2 mph 1016.9mb 62f 63f
9:48 2 2 mph 1016.9mb 63f 63f
9:42 2 2 mph 1016.9mb 63f 63f
9:36 1 2 mph 1016.8mb 64f 63f
9:30  -  2 mph 1016.7mb 64f 62f
9:24 1 2 mph 1016.6mb 64f 63f
9:18 2 3 mph 1016.6mb 65f 63f
9:12 2 5 mph 1016.6mb 66f 63f
9:06 3 6 mph 1016.6mb 66f 63f
9:00 6 9 mph 1016.6mb 66f 62f
8:54 8 11 mph 1016.6mb 66f 62f
8:48 9 10 mph - - -
8:42 9 10 mph 1016.6mb 66f 62f
8:36 9 9 mph 1016.6mb 66f 62f
8:30 8 10 mph 1016.6mb 67f 62f
8:24 8 9 mph 1016.6mb 67f 62f
8:18 9 10 mph 1016.6mb 67f 62f
8:12 9 13 mph 1016.6mb 67f 62f
8:06 11 14 mph 1016.6mb 67f 62f
8:00 13 14 mph 1016.5mb 67f 62f
7:54 14 15 mph 1016.6mb 67f 62f
7:48 14 15 mph 1016.6mb 67f 62f
7:42 14 15 mph 1016.6mb 67f 62f
7:36 14 16 mph 1016.6mb 67f 62f
7:30 14 15 mph 1016.6mb 66f 62f
7:24 13 16 mph 1016.6mb 66f 62f
7:18 14 16 mph - - -
7:12 14 15 mph 1016.8mb 66f 62f
7:06 13 15 mph 1016.8mb 67f 63f
7:00 13 15 mph 1016.8mb 67f 63f
6:54 14 15 mph 1016.8mb 67f 62f
6:48 14 16 mph 1016.8mb - -
6:42 14 16 mph 1016.8mb 67f 62f
6:36 14 15 mph 1016.9mb 67f 62f
6:30 14 15 mph - 66f -
6:24 14 16 mph - 67f 62f
6:18 15 17 mph - - -
6:12 16 18 mph 1016.9mb 67f 62f
6:06 16 20 mph 1017mb 67f 62f
6:00 17 20 mph 1017mb 67f -
5:54 16 18 mph 1017.1mb 67f 61f
5:48 16 17 mph - - -
5:42 16 17 mph 1017.3mb 67f 61f
5:36 16 17 mph 1017.3mb 66f 61f
5:30 15 17 mph 1017.3mb 66f -
5:24 16 17 mph 1017.4mb 66f 61f
5:18 15 17 mph - - -
5:12 15 17 mph 1017.4mb 66f 61f
5:06 15 16 mph 1017.3mb 66f 62f
5:00 14 16 mph 1017.3mb - -
4:54 14 16 mph 1017.3mb 66f 62f
4:48 15 16 mph - - -
4:42 14 16 mph 1017.3mb 65f 61f
4:36 14 15 mph 1017.3mb 66f 61f
4:30 14 15 mph 1017.4mb - -
4:24 14 16 mph 1017.4mb 65f 61f
4:12 15 16 mph 1017.5mb 65f 61f
4:06 14 16 mph 1017.6mb 66f 61f
4:00 14 16 mph 1017.7mb 66f 61f
3:54 15 16 mph 1017.7mb 66f 61f
3:48 15 16 mph - - -
3:42 15 16 mph 1017.8mb 66f 61f
3:36 15 16 mph 1017.9mb 66f 61f
3:30 15 16 mph 1017.9mb 65f -
3:24 14 15 mph 1017.9mb 65f 61f
3:18 15 16 mph - - -
3:12 14 15 mph 1018mb 66f 61f
3:06 14 15 mph 1018mb 66f 61f
3:00 13 15 mph 1018mb 66f -
2:54 14 15 mph 1018.1mb 66f 61f
2:48 13 15 mph - - -
2:42 14 14 mph 1018.1mb 66f 61f
2:36 13 14 mph 1018.2mb 66f 61f
2:30 13 14 mph 1018.2mb 66f 60f
2:24 13 14 mph 1018.2mb 66f 60f
2:18 13 14 mph 1018.2mb 66f 61f
2:12 13 14 mph 1018.2mb 66f 60f
2:06 13 14 mph 1018.2mb 66f 60f
2:00 13 14 mph 1018.3mb 66f 60f
1:54 13 14 mph 1018.4mb 66f 60f
1:48 13 14 mph 1018.4mb 66f 60f
1:42 13 13 mph 1018.4mb 65f 60f
1:36 13 14 mph 1018.4mb 65f 60f
1:30 13 14 mph 1018.5mb 65f 60f
1:24 11 13 mph 1018.4mb 65f 60f
1:18 11 13 mph 1018.5mb 65f 60f
1:12 11 14 mph 1018.6mb 65f 60f
1:06 11 13 mph 1018.5mb 65f 60f
1:00 11 13 mph 1018.6mb 65f 60f
12:54 11 13 mph 1018.7mb 65f 60f
12:48 11 13 mph 1018.7mb 65f 60f
12:42 11 13 mph 1018.8mb 65f 60f
12:36 10 13 mph 1018.7mb 65f 60f
12:30 11 13 mph 1018.7mb 65f 60f
12:24 10 13 mph 1018.7mb 65f 60f
12:18 11 13 mph 1018.7mb 64f 60f
12:12 11 11 mph 1018.7mb 64f 60f
12:06 10 11 mph 1018.7mb 64f 60f
12:00 10 11 mph 1018.7mb 64f 60f
11:54 9 10 mph 1018.6mb 63f 60f
11:48 10 11 mph 1018.6mb 63f 60f
11:42 9 11 mph 1018.6mb 64f 60f
11:36 10 11 mph 1018.6mb 64f 60f
11:30 9 10 mph 1018.7mb 64f 60f
11:24 9 10 mph 1018.6mb 64f 60f
11:18 10 10 mph 1018.7mb 64f 60f
11:12 9 10 mph 1018.7mb 64f 60f
11:06 9 10 mph 1018.7mb 64f 60f
11:00 9 10 mph 1018.7mb 64f 60f
10:54 9 10 mph 1018.7mb 64f 60f
10:48 9 10 mph - - -
10:42 9 10 mph 1018.7mb 64f 60f
10:36 8 9 mph 1018.7mb 65f 60f
10:30 8 10 mph 1018.7mb 65f 60f
10:24 9 9 mph 1018.7mb 65f 60f
10:18 9 10 mph 1018.7mb 65f 60f
10:12 8 10 mph 1018.7mb 65f 60f
10:06 8 9 mph 1018.7mb 65f 60f
10:00 8 9 mph 1018.7mb 65f 60f
9:54 8 9 mph 1018.7mb 65f 60f
9:48 8 10 mph 1018.6mb 65f 60f
9:42 8 9 mph 1018.7mb 65f 60f
9:36 8 10 mph 1018.6mb 65f 60f
9:30 9 10 mph 1018.6mb 65f 60f
9:24 9 10 mph 1018.5mb 65f 60f
9:18 9 11 mph 1018.5mb 64f 59f
9:12 9 10 mph 1018.5mb 64f 60f
9:06 7 9 mph 1018.5mb 64f 60f
9:00 8 8 mph 1018.5mb 64f 60f
8:54 8 9 mph 1018.4mb 64f 59f
8:48 8 9 mph 1018.3mb 64f 60f
8:42 7 9 mph 1018.3mb 64f 60f
8:36 6 9 mph 1018.2mb 64f 60f
8:30 8 9 mph 1018.1mb 64f 60f
8:24 7 8 mph 1018mb 64f 59f
8:18 7 8 mph 1018mb 64f 59f
8:12 6 7 mph 1018mb 64f 59f
8:06 6 7 mph 1018mb 64f 59f
8:00 5 7 mph 1018mb 64f 59f
7:54 6 7 mph 1017.9mb 64f 59f
7:48 5 6 mph 1017.9mb 64f 59f
7:42 5 6 mph 1017.8mb 64f 59f
7:36 5 7 mph 1017.7mb 64f 59f
7:30 5 7 mph 1017.7mb 64f 59f
7:24 3 6 mph 1017.7mb 64f 59f
7:18 6 7 mph 1017.6mb 64f 59f
7:12 5 6 mph 1017.5mb 64f 59f
7:06 6 6 mph 1017.4mb 64f 59f
7:00 5 6 mph 1017.3mb 64f 59f
6:54 5 6 mph 1017.3mb 64f 59f
6:48 5 6 mph 1017.2mb 64f 59f
6:42 2 5 mph 1017.2mb 64f 59f
6:36 3 5 mph 1017.2mb 64f 59f
6:30 3 5 mph 1017.1mb 64f 59f
6:24 3 3 mph 1017.1mb 64f 59f
6:18 3 5 mph 1017mb 64f 59f
6:12 2 5 mph 1016.9mb 64f 59f
6:06 1 2 mph 1016.9mb 64f 59f
6:00  -  1 mph 1016.8mb 64f 59f
5:54  -  1 mph 1016.8mb 64f 59f
5:48  -  2 mph 1016.7mb 64f 59f
5:42 2 2 mph 1016.7mb 64f 59f
5:36 2 3 mph 1016.6mb 64f 59f
5:30 2 3 mph 1016.6mb 64f 59f
5:24 3 3 mph 1016.5mb 64f 58f
5:18 3 5 mph 1016.5mb 64f 58f
5:12 3 5 mph 1016.5mb 64f 58f
5:06 5 6 mph 1016.5mb 64f 58f
5:00 3 6 mph 1016.5mb 64f 58f
4:54 6 7 mph 1016.4mb 64f 58f
4:48 6 7 mph 1016.4mb 64f 58f
4:42 5 6 mph 1016.4mb 65f 58f
4:36 6 6 mph 1016.4mb 65f 58f
4:30 3 5 mph 1016.4mb 65f 58f
4:24 3 5 mph 1016.4mb 65f 58f
4:18 3 5 mph 1016.3mb 65f 58f
4:12 3 5 mph 1016.4mb 65f 58f
4:06 5 5 mph 1016.4mb 64f 58f
4:00 2 5 mph 1016.4mb 64f 58f
3:54 3 5 mph 1016.4mb 64f 58f
3:48 2 3 mph 1016.4mb 64f 58f
3:42  -  1 mph 1016.5mb 64f 59f
3:36  -  1 mph 1016.5mb 64f 58f
3:30  -  3 mph 1016.5mb 64f 59f
3:24  -  2 mph 1016.5mb 64f 59f
3:18 2 3 mph 1016.6mb 64f 59f
3:12 1 2 mph 1016.6mb 64f 59f
3:06  -  2 mph 1016.6mb 64f 59f
3:00 2 3 mph 1016.6mb 64f 59f
2:54 2 5 mph 1016.6mb 64f 59f
2:48 3 5 mph 1016.5mb 64f 59f
2:42 3 5 mph 1016.5mb 63f 59f
2:36 3 3 mph 1016.5mb 63f 59f
2:30 2 3 mph 1016.5mb 63f 59f
2:24 2 3 mph 1016.5mb 63f 59f
2:18 2 2 mph 1016.5mb 63f 59f
2:12  -  2 mph 1016.5mb 63f 60f
2:06 2 5 mph 1016.6mb 63f 60f
2:00 3 6 mph 1016.6mb 63f 60f
1:54 6 6 mph 1016.6mb 63f 60f
1:48 6 8 mph 1016.7mb 63f 60f
1:42 7 8 mph 1016.7mb 62f 60f
1:36 7 8 mph 1016.7mb 62f 60f
1:30 7 8 mph 1016.8mb 62f 60f
1:24 7 8 mph 1016.7mb 62f 60f
1:18 7 9 mph 1016.7mb 62f 60f
1:12 8 8 mph 1016.7mb 62f 60f
1:06 8 9 mph 1016.7mb 61f 60f
1:00 8 9 mph 1016.8mb 62f 61f
12:54 9 10 mph 1016.8mb 61f 61f
12:48 8 9 mph 1016.8mb 62f 61f
12:42 8 8 mph 1016.8mb 62f 61f
12:36 7 8 mph 1016.8mb 63f 61f
12:30 6 7 mph 1016.8mb 62f 61f
12:24 7 8 mph 1016.8mb 63f 61f
12:18 6 7 mph 1016.8mb 63f 62f
12:12 1 2 mph 1016.8mb 63f 61f
12:06 2 5 mph 1016.8mb 64f 61f
12:00 1 3 mph 1016.8mb 64f 61f
ven. 05/26 11:54 3 3 mph 1016.7mb 64f 62f
11:48 2 3 mph 1016.7mb 64f 62f
11:42 2 3 mph - - -
11:36 2 2 mph - - -
11:30 2 2 mph 1016.7mb 64f 62f
11:24 2 3 mph 1016.7mb 64f 62f
11:18 2 2 mph 1016.6mb 64f 62f
11:12 2 2 mph 1016.6mb 64f 62f
11:06 2 2 mph 1016.6mb 64f 62f
11:00 2 3 mph 1016.6mb 64f 62f
10:54 3 5 mph 1016.7mb 64f 62f
10:48 5 6 mph 1016.6mb 64f 62f
10:42 5 6 mph 1016.6mb 64f 62f
10:36 5 6 mph 1016.6mb 63f 62f
10:30 1 2 mph 1016.6mb 63f 62f
10:24 2 3 mph 1016.5mb 63f 62f
10:18 2 5 mph 1016.5mb 63f 62f
10:12 3 3 mph 1016.4mb 64f 62f
10:06 3 5 mph 1016.3mb 64f 61f
10:00 3 5 mph 1016.3mb 64f 61f
9:54 3 5 mph 1016.2mb 64f 62f
9:48 5 6 mph - - -
9:42 6 6 mph 1016.2mb 65f 61f
9:36 6 7 mph 1016.1mb 66f 61f
9:30 7 8 mph 1016.1mb 66f 61f
9:24 8 9 mph 1016mb 66f 61f
9:18 8 10 mph 1016mb 66f 62f
9:12 9 10 mph 1016mb 66f 61f
9:06 10 10 mph 1015.9mb 66f 62f
9:00 9 11 mph 1015.9mb 66f 62f
8:54 10 13 mph 1015.8mb 66f 62f
8:48 10 11 mph 1015.8mb 66f 62f
8:42 10 13 mph 1015.8mb 66f 62f
8:36 10 11 mph 1015.8mb 66f 62f
8:30 10 13 mph 1015.8mb 66f 62f
8:24 10 13 mph 1015.7mb 66f 62f
8:18 10 11 mph 1015.7mb 66f 62f
8:12 10 11 mph 1015.7mb 66f 62f
8:06 10 11 mph 1015.6mb 66f 62f
8:00 11 13 mph 1015.6mb 66f 62f
7:54 10 13 mph 1015.6mb 66f 62f
7:48 13 14 mph 1015.6mb 66f 62f
7:42 11 14 mph 1015.6mb 66f 62f
7:36 13 14 mph 1015.7mb 66f 62f
7:30 14 15 mph 1015.6mb 66f 62f
7:24 14 15 mph 1015.6mb 66f 62f
7:18 15 16 mph - - -
7:12 15 16 mph 1015.6mb 66f 62f
7:06 15 16 mph 1015.6mb 66f 62f
7:00 15 16 mph 1015.6mb 66f 62f
6:54 13 15 mph 1015.6mb 66f 62f
6:48 14 15 mph - - -
6:42 14 15 mph 1015.5mb 66f 62f
6:36 14 16 mph 1015.5mb 66f 62f
6:30 14 16 mph 1015.5mb 66f 62f
6:24 14 16 mph 1015.5mb 66f 62f
6:18 14 16 mph 1015.5mb 66f 62f
6:12 14 16 mph 1015.5mb 66f 62f
6:06 14 15 mph 1015.5mb 67f 62f
6:00 14 16 mph 1015.5mb 67f -
5:54 14 16 mph 1015.5mb 67f 62f
5:48 14 16 mph - - -
5:42 15 16 mph 1015.5mb 67f 62f
5:36 14 16 mph 1015.5mb 67f 62f
5:30 15 16 mph 1015.5mb 67f -
5:24 15 16 mph 1015.5mb 67f 62f
5:18 13 15 mph - - -
5:12 14 15 mph 1015.5mb 67f 62f
5:06 14 15 mph 1015.5mb 66f 62f
5:00 14 15 mph 1015.5mb 67f 62f
4:54 13 14 mph 1015.5mb 67f 62f
4:48 14 14 mph - - -
4:42 13 14 mph 1015.5mb 66f 62f
4:36 13 14 mph 1015.5mb 66f 62f
4:30 13 14 mph 1015.5mb 66f 62f
4:24 14 15 mph 1015.5mb 66f 62f
4:18 13 14 mph - - -
4:12 13 14 mph 1015.6mb 66f 62f
4:06 11 14 mph 1015.7mb 66f 62f
4:00 11 13 mph 1015.7mb 66f 62f
3:54 11 11 mph 1015.8mb 66f 62f
3:48 11 13 mph - - -
3:42 11 13 mph 1015.8mb 66f 62f
3:36 11 13 mph 1015.8mb 66f 62f
3:30 11 11 mph 1015.8mb 66f 62f
3:24 10 13 mph 1015.8mb 66f 62f
3:18 11 13 mph - - -
3:12 11 13 mph 1016mb 66f 62f
3:06 10 11 mph 1016.1mb 66f 62f
3:00 10 11 mph 1016.1mb 66f 62f
2:54 10 11 mph 1016.1mb 65f 62f
2:48 9 10 mph 1016.1mb 65f 63f
2:42 9 10 mph 1016.1mb 65f 63f
2:36 8 10 mph 1016.1mb 65f 63f
2:30 10 11 mph 1016.2mb 64f 62f
2:24 9 10 mph 1016.2mb 65f 63f
2:18 9 11 mph 1016.3mb 64f 63f
2:12 9 11 mph 1016.4mb 64f 63f
2:06 10 11 mph 1016.4mb 63f 63f
2:00 11 11 mph 1016.4mb 64f 63f
1:54 10 11 mph 1016.4mb 64f 63f
1:48 9 10 mph 1016.4mb 64f 63f
1:42 9 10 mph 1016.3mb 63f 63f
1:36 9 10 mph 1016.3mb 63f 63f
1:30 9 10 mph 1016.3mb 63f 63f
1:24 8 9 mph 1016.3mb 62f 63f
1:18 9 9 mph 1016.3mb 61f 63f
1:12 8 9 mph 1016.3mb 62f 63f
1:06 7 9 mph 1016.3mb 61f 63f
1:00 8 9 mph 1016.3mb 60f 63f
12:54 7 9 mph 1016.3mb 61f 63f
12:48 7 9 mph 1016.3mb 60f 63f
12:42 7 8 mph 1016.2mb 60f 63f
12:36 7 8 mph 1016.2mb 61f 63f
12:30 6 7 mph 1016.2mb 60f 63f
12:24 7 8 mph 1016.2mb 61f 63f
12:18 7 9 mph 1016.1mb 61f 63f
12:12 7 8 mph 1016.1mb 61f 63f
12:06 8 8 mph 1016.1mb 60f 62f
12:00 7 7 mph 1016.1mb 60f 63f
11:54 7 8 mph 1016.1mb 60f 62f
11:48 6 8 mph 1016.1mb 60f 63f
11:42 6 8 mph 1016.1mb 60f 63f
11:36 7 8 mph 1016.1mb 60f 62f
11:30 7 8 mph 1016.1mb 60f 63f
11:24 6 7 mph 1016.1mb 60f 62f
11:18 6 7 mph 1016.1mb 60f 62f
11:12 6 6 mph 1016mb 60f 63f
11:06 6 7 mph 1015.9mb 61f 62f
11:00 6 7 mph 1015.9mb 62f 62f
10:54 5 6 mph 1015.9mb 62f 63f
10:48 5 7 mph 1015.8mb 62f 63f
10:42 5 7 mph 1015.8mb 62f 63f
10:36 5 6 mph 1015.8mb 62f 63f
10:30 5 6 mph 1015.8mb 62f 62f
10:24 5 6 mph 1015.9mb 62f 62f
10:18 5 6 mph 1015.8mb 63f 62f
10:12 5 5 mph 1015.8mb 64f 63f
10:06 3 6 mph 1015.8mb 64f 63f
10:00 5 6 mph 1015.7mb 64f 63f
9:54 3 5 mph 1015.7mb 64f 63f
9:48 3 5 mph 1015.7mb 64f 63f
9:42 3 5 mph 1015.7mb 64f 62f
9:36 5 5 mph 1015.7mb 64f 62f
9:30 5 5 mph 1015.7mb 64f 62f
9:24 5 6 mph 1015.7mb 64f 62f
9:18 2 3 mph 1015.6mb 64f 62f
9:12 3 5 mph 1015.6mb 64f 62f
9:06 3 3 mph 1015.6mb 64f 62f
9:00 2 3 mph 1015.5mb 64f 62f
8:54 3 3 mph 1015.5mb 64f 62f
8:48 1 5 mph 1015.4mb 64f 62f
8:42 3 5 mph 1015.3mb 64f 62f
8:36 2 5 mph 1015.2mb 64f 62f
8:30 2 3 mph 1015.2mb 64f 62f
8:24 1 3 mph 1015.1mb 64f 62f
8:18 2 3 mph 1015mb 64f 62f
8:12 2 3 mph 1015mb 64f 62f
8:06 2 3 mph 1015mb 64f 62f
8:00 3 5 mph 1014.9mb 64f 61f
7:54 2 3 mph 1014.8mb 64f 61f
7:48 3 5 mph 1014.8mb 64f 61f
7:42 3 5 mph 1014.8mb 64f 61f
7:36 3 5 mph 1014.8mb 64f 61f
7:30 2 5 mph 1014.7mb 64f 61f
7:24 3 5 mph 1014.6mb 64f 61f
7:18 2 5 mph 1014.6mb 64f 61f
7:12 3 6 mph 1014.6mb 64f 61f
7:06 3 6 mph 1014.5mb 64f 61f
7:00 5 6 mph 1014.5mb 64f 61f
6:54 6 6 mph 1014.5mb 64f 61f
6:48 5 6 mph 1014.4mb 64f 61f
6:42 5 6 mph 1014.4mb 64f 61f
6:36 5 6 mph 1014.4mb 64f 61f
6:30 5 6 mph 1014.4mb 64f 61f
6:24 5 6 mph 1014.3mb 64f 61f
6:18 5 6 mph 1014.2mb 64f 61f
6:12 6 7 mph 1014.2mb 64f 61f
6:06 3 6 mph 1014.1mb 64f 61f
6:00 3 5 mph 1014.1mb 64f 61f
5:54 3 6 mph 1014mb 64f 61f
5:48 5 6 mph 1014mb 64f 61f
5:42 5 6 mph 1013.9mb 64f 61f
5:36 3 6 mph 1013.9mb 64f 61f
5:30 3 5 mph 1013.9mb 64f 61f
5:24 5 5 mph 1013.8mb 64f 61f
5:18 3 3 mph 1013.8mb 64f 61f
5:12  -  2 mph 1013.8mb 64f 61f
5:06 3 5 mph 1013.8mb 64f 60f
5:00 3 6 mph 1013.8mb 64f 60f
4:54 5 6 mph 1013.7mb 63f 60f
4:48 6 6 mph 1013.6mb 64f 60f
4:42 3 6 mph 1013.6mb 63f 60f
4:36 5 6 mph 1013.6mb 63f 60f
4:30 5 6 mph 1013.6mb 63f 60f
4:24 6 6 mph 1013.5mb 63f 60f
4:18 2 5 mph 1013.5mb 63f 60f
4:12 3 6 mph 1013.5mb 63f 60f
4:06 3 6 mph 1013.6mb 63f 60f
4:00 3 6 mph 1013.6mb 63f 60f
3:54 2 5 mph 1013.5mb 62f 60f
3:48 5 5 mph 1013.5mb 62f 60f
3:42 3 6 mph 1013.5mb 63f 60f
3:36 5 6 mph 1013.5mb 62f 60f
3:30 5 6 mph 1013.5mb 62f 60f
3:24 6 6 mph 1013.5mb 62f 60f
3:18 5 6 mph 1013.5mb 62f 60f
3:12 5 6 mph 1013.5mb 62f 61f
3:06 5 6 mph 1013.5mb 62f 60f
3:00 5 6 mph 1013.6mb 62f 60f
2:54 2 3 mph 1013.5mb 61f 61f
2:48 3 3 mph 1013.6mb 61f 61f
2:42 2 5 mph 1013.5mb 62f 61f
2:36 3 6 mph 1013.5mb 61f 60f
2:30 5 7 mph 1013.5mb 61f 60f
2:24 6 7 mph 1013.5mb 62f 60f
2:18 5 6 mph 1013.5mb 62f 61f
2:12 5 7 mph 1013.6mb 62f 61f
2:06 7 8 mph 1013.5mb 61f 61f
2:00 6 7 mph 1013.5mb 62f 61f
1:54 5 6 mph 1013.5mb 62f 61f
1:48 6 6 mph 1013.5mb 62f 61f
1:42 5 8 mph 1013.5mb 62f 61f
1:36 6 7 mph 1013.5mb 62f 61f
1:30 6 6 mph 1013.5mb 62f 61f
1:24 3 6 mph 1013.5mb 62f 61f
1:18 5 6 mph 1013.5mb 62f 61f
1:12 6 7 mph 1013.5mb 62f 61f
1:06 5 6 mph 1013.4mb 62f 61f
1:00 5 6 mph 1013.4mb 62f 61f
12:54 6 7 mph 1013.5mb 61f 61f
12:48 6 6 mph 1013.4mb 61f 61f
12:42 6 7 mph 1013.5mb 61f 61f
12:36 6 6 mph 1013.5mb 61f 61f
12:30 5 6 mph 1013.6mb 61f 61f
12:24 3 5 mph 1013.6mb 61f 61f
12:18 3 6 mph 1013.7mb 61f 61f
12:12 3 5 mph 1013.6mb 61f 61f
12:06 3 6 mph 1013.6mb 61f 61f
12:00 5 8 mph 1013.6mb 61f 61f
jeu. 05/25 11:54 6 8 mph 1013.6mb 61f 61f
11:48 5 7 mph 1013.6mb 61f 61f
11:42 5 6 mph 1013.6mb 61f 61f
11:36 6 7 mph 1013.5mb 60f 61f
11:30 6 7 mph 1013.5mb 60f 61f
11:24 6 7 mph 1013.4mb 60f 61f
11:18 5 6 mph - - -
11:12 6 8 mph 1013.5mb 60f 61f
11:06 6 8 mph 1013.4mb 60f 61f
11:00 6 6 mph 1013.4mb 60f 61f
10:54 6 7 mph 1013.4mb 60f 61f
10:48 6 7 mph 1013.3mb 60f 61f
10:42 6 7 mph 1013.2mb 60f 61f
10:36 7 8 mph 1013.2mb 60f 61f
10:30 5 6 mph 1013.1mb 60f 61f
10:24 6 6 mph 1013mb 60f 61f
10:18 6 8 mph 1013mb 61f 61f
10:12 6 7 mph 1012.8mb 60f 61f
10:06 7 8 mph 1012.8mb 61f 61f
10:00 7 8 mph 1012.8mb 61f 61f
9:54 7 10 mph 1012.8mb 61f 61f
9:48 8 10 mph 1012.9mb 62f 61f
9:42 9 10 mph 1012.8mb 62f 61f
9:36 8 9 mph 1012.7mb 63f 61f
9:30 8 9 mph 1012.6mb 63f 61f
9:24 8 10 mph 1012.5mb 64f 61f
9:18 8 10 mph 1012.5mb 64f 61f
9:12 9 10 mph 1012.4mb 64f 61f
9:06 9 10 mph 1012.3mb 65f 61f
9:00 9 11 mph 1012.2mb 65f 60f
8:54 9 10 mph 1012.1mb 64f 61f
8:48 8 10 mph - - -
8:42 9 11 mph 1012mb 65f 60f
8:36 9 11 mph 1011.9mb 65f 60f
8:30 9 11 mph 1011.9mb 65f 61f
8:24 9 10 mph 1011.8mb 65f 60f
8:18 9 13 mph 1011.8mb 64f 60f
8:12 10 11 mph 1011.8mb 65f 60f
8:06 11 13 mph 1011.7mb 65f 60f
8:00 10 13 mph 1011.7mb 65f 60f
7:54 10 13 mph 1011.7mb 66f 60f
7:48 10 13 mph 1011.6mb 66f 60f
7:42 11 14 mph 1011.6mb 66f 60f
7:36 11 11 mph 1011.6mb 66f 60f
7:30 10 11 mph 1011.5mb 66f 60f
7:24 10 11 mph 1011.5mb 66f 60f
7:18 10 11 mph - - -
7:12 9 11 mph 1011.5mb 66f 61f
7:06 10 13 mph 1011.4mb 66f 61f
7:00 10 11 mph 1011.4mb 66f 61f
6:54 9 11 mph 1011.4mb 66f 61f
6:48 9 11 mph - - -
6:42 10 13 mph 1011.3mb 66f 61f
6:36 10 13 mph 1011.3mb 66f 61f
6:30 10 11 mph 1011.3mb 66f -
6:24 10 11 mph 1011.3mb 66f 61f
6:18 9 11 mph 1011.3mb 66f 61f
6:12 9 10 mph 1011.3mb 66f 61f
6:06 8 11 mph 1011.3mb 66f 61f
6:00 9 11 mph 1011.3mb 66f 61f
5:54 8 10 mph 1011.3mb 66f 61f
5:48 8 10 mph - - -
5:42 9 11 mph 1011.3mb 66f 61f
5:36 9 10 mph 1011.3mb 66f 61f
5:30 9 10 mph 1011.3mb 66f -
5:24 9 10 mph 1011.3mb 66f 61f
5:18 9 11 mph - - -
5:12 9 10 mph 1011.4mb 66f 61f
5:06 7 10 mph 1011.4mb 65f 61f
5:00 8 10 mph 1011.4mb 65f -
4:54 8 10 mph 1011.4mb 65f 61f
4:48 8 9 mph 1011.4mb 65f 61f
4:42 9 10 mph 1011.5mb 65f 61f
4:36 9 11 mph 1011.6mb 65f 61f
4:30 9 10 mph 1011.6mb 65f 61f
4:24 10 11 mph 1011.6mb 65f 61f
4:18 9 10 mph 1011.7mb 65f 61f
4:12 9 10 mph 1011.7mb 65f 61f
4:06 9 10 mph 1011.7mb 65f 61f
4:00 8 9 mph 1011.8mb 65f 61f
3:54 8 9 mph 1011.9mb 65f 61f
3:48 7 9 mph - - -
3:42 8 9 mph 1011.9mb 65f 61f
3:36 8 9 mph 1011.9mb 65f 61f
3:30 7 8 mph 1011.9mb 65f 61f
3:24 8 9 mph 1011.9mb 65f 61f
3:18 8 10 mph 1011.9mb 65f 61f
3:12 8 10 mph 1012mb 65f 61f
3:06 9 10 mph 1012mb 65f 61f
3:00 9 10 mph 1012mb 65f 60f
2:54 8 9 mph 1012mb 65f 60f
2:48 9 10 mph - - -
2:42 9 11 mph 1012.1mb 65f 61f
2:36 9 10 mph 1012.1mb 65f 60f
2:30 9 11 mph 1012.1mb 65f 60f
2:24 10 11 mph 1012.2mb 65f 61f
2:18 10 10 mph 1012.2mb 65f 60f
2:12 10 11 mph 1012.3mb 65f 60f
2:06 10 11 mph 1012.3mb 65f 60f
2:00 9 11 mph 1012.4mb 65f 60f
1:54 10 11 mph 1012.3mb 65f 60f
1:48 10 11 mph 1012.4mb 65f 60f
1:42 8 11 mph 1012.4mb 65f 60f
1:36 9 11 mph 1012.4mb 65f 60f
1:30 9 10 mph 1012.5mb 65f 60f
1:24 8 9 mph 1012.5mb 65f 60f
1:18 8 9 mph 1012.5mb 65f 60f
1:12 8 9 mph 1012.5mb 65f 60f
1:06 8 10 mph 1012.5mb 64f 60f
1:00 8 10 mph 1012.5mb 64f 60f
12:54 8 10 mph 1012.6mb 64f 60f
12:48 9 10 mph 1012.7mb 64f 60f
12:42 8 10 mph 1012.7mb 64f 60f
12:36 8 10 mph 1012.8mb 64f 60f
12:30 9 10 mph 1012.8mb 63f 60f
12:24 8 11 mph 1012.8mb 63f 60f
12:18 8 10 mph 1012.9mb 62f 60f
12:12 8 11 mph 1012.9mb 62f 60f
12:06 9 10 mph 1012.9mb 62f 60f
12:00 8 10 mph 1012.9mb 62f 60f
11:54 8 10 mph 1012.9mb 61f 60f
11:48 9 11 mph 1012.9mb 61f 60f
11:42 10 11 mph 1012.8mb 60f 60f
11:36 9 10 mph 1012.8mb 60f 60f
11:30 9 10 mph 1012.7mb 60f 60f
11:24 8 11 mph 1012.6mb 60f 60f
11:18 10 11 mph 1012.5mb 60f 60f
11:12 7 8 mph 1012.5mb 60f 60f
11:06 6 8 mph 1012.5mb 61f 60f
11:00 6 8 mph 1012.5mb 61f 61f
10:54 7 8 mph 1012.5mb 61f 60f
10:48 7 9 mph 1012.4mb 61f 60f
10:42 6 9 mph 1012.5mb 61f 60f
10:36 7 9 mph 1012.5mb 61f 60f
10:30 8 9 mph 1012.4mb 61f 60f
10:24 3 7 mph 1012.4mb 60f 61f
10:18 5 7 mph 1012.4mb 61f 61f
10:12 5 6 mph 1012.3mb 60f 61f
10:06 6 6 mph 1012.2mb 61f 60f
10:00 5 6 mph 1012.2mb 61f 60f
9:54 5 7 mph 1012.2mb 61f 60f
9:48 5 6 mph 1012.3mb 61f 60f
9:42 5 6 mph 1012.3mb 62f 60f
9:36 3 6 mph 1012.3mb 63f 60f
9:30 3 6 mph 1012.2mb 63f 60f
9:24 5 7 mph 1012.1mb 64f 60f
9:18 5 7 mph 1012.1mb 64f 60f
9:12 6 7 mph 1012mb 64f 60f
9:06 7 8 mph 1012mb 64f 60f
9:00 5 8 mph 1012mb 64f 60f
8:54 6 7 mph 1011.9mb 64f 60f
8:48 5 8 mph 1011.8mb 64f 60f
8:42 3 5 mph 1011.8mb 64f 60f
8:36 2 5 mph 1011.7mb 65f 60f
8:30 5 6 mph 1011.7mb 65f 60f
8:24 5 6 mph 1011.7mb 65f 60f
8:18 3 5 mph 1011.7mb 65f 60f
8:12 3 5 mph 1011.6mb 65f 60f
8:06 3 6 mph 1011.6mb 65f 60f
8:00 3 6 mph 1011.6mb 65f 60f
7:54 5 6 mph 1011.5mb 65f 60f
7:48 3 6 mph 1011.5mb 65f 60f
7:42 5 6 mph 1011.5mb 65f 59f
7:36 3 5 mph 1011.5mb 65f 59f
7:30 3 6 mph 1011.5mb 65f 60f
7:24 3 6 mph 1011.3mb 65f 60f
7:18 5 6 mph 1011.3mb 65f 59f
7:12 3 5 mph 1011.3mb 65f 60f
7:06 3 5 mph 1011.3mb 65f 59f
7:00 2 3 mph 1011.3mb 65f 59f
6:54 1 3 mph 1011.2mb 65f 59f
6:48 3 3 mph 1011.2mb 65f 59f
6:42 3 5 mph 1011.2mb 65f 59f
6:36 3 5 mph 1011.2mb 65f 59f
6:30 3 6 mph 1011.2mb 65f 59f
6:24 5 6 mph 1011.2mb 65f 59f
6:18 3 5 mph 1011.2mb 65f 59f
6:12 3 7 mph 1011.2mb 65f 59f
6:06 6 7 mph 1011.1mb 65f 59f
6:00 5 6 mph 1011.1mb 65f 59f
5:54 6 6 mph 1011.1mb 65f 59f
5:48 2 5 mph 1011.1mb 65f 59f
5:42 3 5 mph 1011mb 65f 59f